[Iaude] MPEC F33: 2018 FV [a=1.75,e=0.42,i=1.9,H=24.7]

mpec at mpcdb1.cfa.harvard.edu mpec at mpcdb1.cfa.harvard.edu
Sun Mar 18 10:13:17 EDT 2018


M.P.E.C. 2018-F33                                Issued 2018 Mar. 18, 14:08 UT
 
     The Minor Planet Electronic Circulars contain information on unusual
         minor planets and routine data on comets.  They are published
    on behalf of Division F of the International Astronomical Union by the
          Minor Planet Center, Smithsonian Astrophysical Observatory,
                          Cambridge, MA 02138, U.S.A.

             Prepared using the Tamkin Foundation Computer Network

                              MPC at CFA.HARVARD.EDU
            URL https://www.minorplanetcenter.net/    ISSN 1523-6714


                                    2018 FV
 
Observations:
     K18F00V  C2018 03 07.45082 12 49 41.208+36 01 25.94         19.6 iUEF033F51
     K18F00V  C2018 03 07.47295 12 49 50.045+35 58 28.09         19.6 iUEF033F51
     K18F00V  C2018 03 07.48402 12 49 54.433+35 56 58.50         19.7 iUEF033F51
     K18F00V* C2018 03 16.34547 13 33 02.68 +19 21 46.3          20.3 GUEF033G96
     K18F00V  C2018 03 16.35059 13 33 03.34 +19 21 19.3          20.2 GUEF033G96
     K18F00V  C2018 03 16.35572 13 33 03.93 +19 20 53.3          20.0 GUEF033G96
     K18F00V  C2018 03 16.36085 13 33 04.59 +19 20 26.4          20.3 GUEF033G96
     K18F00V  C2018 03 16.41737 13 33 11.51 +19 15 30.0          19.6 GUEF033I52
     K18F00V  C2018 03 16.42032 13 33 11.86 +19 15 15.9          21.1 GUEF033I52
     K18F00V  C2018 03 16.42241 13 33 12.12 +19 15 04.7          19.3 GUEF033I52
     K18F00V  C2018 03 16.42318 13 33 12.19 +19 15 00.0          19.6 GUEF033I52
     K18F00V  C2018 03 17.38221 13 35 44.94 +17 53 52.1          20.0 GUEF033I52
     K18F00V  C2018 03 17.38262 13 35 44.98 +17 53 49.9          20.5 GUEF033I52
     K18F00V  C2018 03 17.38585 13 35 45.33 +17 53 33.8          20.2 GUEF033I52
     K18F00V  C2018 03 17.38905 13 35 45.66 +17 53 18.0          20.8 GUEF033I52
     K18F00V  C2018 03 18.29776 13 37 57.76 +16 40 27.0          20.6 GUEF033G96
     K18F00V  C2018 03 18.30238 13 37 58.20 +16 40 05.1          20.0 GUEF033G96
     K18F00V  C2018 03 18.30740 13 37 58.74 +16 39 42.6                UEF033G96
     K18F00V  C2018 03 18.32762 13 38 00.62 +16 38 09.1          20.4 GUEF033I52
     K18F00V  C2018 03 18.32839 13 38 00.73 +16 38 05.4          20.3 GUEF033I52
     K18F00V  C2018 03 18.32970 13 38 00.81 +16 37 59.7          19.8 GUEF033I52
     K18F00V  C2018 03 18.33046 13 38 00.92 +16 37 56.0          19.9 GUEF033I52
 
Observer details:
F51 Pan-STARRS 1, Haleakala.  Observers J. Bulger, T. Lowe, A. Schultz,
    M. Willman.  Measurers K. Chambers, S. Chastel, L. Denneau, H. Flewelling,
    M. Huber, E. Magnier, Y. Ramanjooloo, R. Wainscoat, C. Waters, R. Weryk.
    1.8-m Ritchey-Chretien + CCD.
G96 Mt. Lemmon Survey.  Observers A. D. Grauer, J. A. Johnson.  Measurers
    B. M. Africano, E. J. Christensen, D. C. Fuls, A. R. Gibbs, A. D. Grauer,
    J. A. Johnson, R. A. Kowalski, S. M. Larson, G. J. Leonard, R. L. Seaman,
    F. C. Shelly.  1.5-m reflector + 10K CCD.
I52 Steward Observatory, Mt. Lemmon Station.  Observers B. M. Africano,
    G. J. Leonard, R. A. Kowalski.  Measurers B. M. Africano,
    E. J. Christensen, D. C. Fuls, A. R. Gibbs, A. D. Grauer, J. A. Johnson,
    R. A. Kowalski, S. M. Larson, G. J. Leonard, R. L. Seaman, F. C. Shelly.
    1.0-m reflector + CCD.
 
Orbital elements:
2018 FV                                                  Earth MOID = 0.0451 AU
Epoch 2018 Mar. 23.0 TT = JDT 2458200.5                 MPC
M  13.61144              (2000.0)            P               Q
n   0.42468555     Peri.   78.09655     -0.85029958     -0.52540790
a   1.7529024      Node    70.20082     +0.46932162     -0.78328528
e   0.4179929      Incl.    1.86453     +0.23817608     -0.33228106
P   2.32           H   24.7           G   0.15           U   7
Residuals in seconds of arc
180307 F51  0.1+  0.2-    180316 I52  0.3+  0.6+    180318 G96  0.1-  0.3-
180307 F51  0.0   0.1+    180316 I52  0.3+  0.4+    180318 G96  0.6+  0.3+
180307 F51  0.1-  0.1+    180316 I52  0.0   0.3-    180318 I52  0.3-  0.2-
180316 G96  0.2-  0.0     180317 I52  0.2-  0.4+    180318 I52  0.2+  0.4-
180316 G96  0.1+  0.4-    180317 I52  0.2-  0.2+    180318 I52  0.4-  0.0
180316 G96  0.5-  0.2+    180317 I52  0.1-  0.0     180318 I52  0.1+  0.2-
180316 G96  0.1-  0.0     180317 I52  0.2-  0.0
180316 I52  0.4+  0.8-    180318 G96  0.1+  0.4+

Ephemeris:
2018 FV                  a,e,i = 1.75, 0.42, 2                   q = 1.0202
Date    TT    R. A. (2000) Decl.     Delta      r     Elong.  Phase     V
2018 02 16    06 45 09.5 +56 28 50   0.05820 1.0206   122.8    54.4    20.6
...
2018 03 03    12 02 39.1 +46 36 09   0.04994 1.0287   137.8    40.4    19.8
...
2018 03 11    13 12 24.9 +28 27 58   0.06113 1.0436   144.4    33.7    20.1
...
2018 03 17    13 34 46.3 +18 26 12   0.07458 1.0592   148.4    29.5    20.5
2018 03 18    13 37 13.4 +17 04 30   0.07712 1.0621   149.1    28.8    20.5
2018 03 19    13 39 24.6 +15 47 26   0.07974 1.0651   149.8    28.1    20.6
...
2018 03 25    13 48 17.9 +09 27 18   0.09693 1.0853   154.2    23.5    20.9
...
2018 04 02    13 53 05.4 +03 39 14   0.1234  1.1167   160.8    17.1    21.3
...
2018 04 17    13 52 53.5 -02 46 38   0.1849  1.1871   171.7     7.0    21.9

A. U. Tomatic                (C) Copyright 2018 MPC           M.P.E.C. 2018-F33



More information about the Iaude mailing list